Temperature
17 17 17 16 17 16 16 16 16 16 16 16 16 16 16 17 17 17 17 17 17 17 16 16 16 16 16 16 16 16 16 16 16 16 16 16 16 16 16 16 16 16 16
17 17 17 17 16 16 16 16 16 16 16 16 16 16 16 16 16 16 16 17 17 16 16 16 16 16 16 16 16 16 16 16 16 16 16 16 16 16 16 16 16 16 15
17 17 17 16 16 16 16 16 16 16 16 16 16 16 16 16 16 16 16 16 16 16 16 16 16 16 16 16 16 16 16 16 16 16 16 16 16 16 16 16 16 15 15
17 17 16 16 16 16 16 16 16 16 16 16 16 16 16 16 16 16 16 16 16 16 16 16 16 16 16 16 16 16 16 16 16 16 16 16 16 16 16 15 15 15 15
17 16 16 16 16 16 16 16 16 16 16 16 16 16 16 16 16 16 16 16 16 16 16 16 16 16 16 16 16 16 16 16 16 16 16 16 16 16 16 16 15 15 15
16 16 16 16 16 16 16 16 15 15 16 16 17 16 16 16 16 16 16 16 16 16 16 16 16 16 16 16 16 16 16 16 16 16 16 16 16 16 15 15 15 15 15
16 16 16 16 16 16 15 15 15 15 16 16 16 16 16 16 16 16 16 16 16 16 16 16 16 15 15 16 16 15 15 15 15 15 15 15 15 15 15 15 15 15 15
16 16 16 16 16 15 15 15 15 16 16 16 16 17 17 17 16 16 16 16 16 16 16 16 15 15 15 15 15 15 15 15 15 15 15 15 15 15 15 15 15 15 15
16 16 16 15 15 15 15 15 15 15 16 16 16 17 18 18 18 17 16 16 15 16 16 16 15 15 15 15 15 15 15 15 15 15 15 15 15 15 15 15 15 15 15
16 16 15 15 15 15 15 15 15 15 15 16 16 16 16 17 18 18 17 16 16 15 16 16 16 15 15 15 15 15 15 15 15 15 15 15 15 15 15 15 15 15 15
16 16 15 15 15 15 15 15 15 15 15 16 16 16 16 16 16 17 18 17 17 16 16 16 16 16 15 15 15 15 15 15 15 15 15 15 15 15 15 15 15 15 15
16 16 15 15 15 15 15 15 15 15 15 15 16 16 16 16 17 17 17 17 17 17 16 16 16 16 15 15 15 15 15 15 15 15 15 15 15 15 15 15 15 15 15
16 16 15 15 15 15 15 15 15 15 15 15 15 15 15 16 16 16 17 17 17 17 16 16 16 16 15 15 15 15 15 15 15 15 15 15 15 14 14 15 15 15 15
16 16 16 15 15 15 15 15 15 15 15 15 15 15 15 15 15 16 16 17 17 18 17 17 16 16 15 15 15 15 15 15 15 15 15 15 15 15 15 14 14 14 14
16 16 16 15 15 15 15 15 15 15 15 15 15 15 15 15 15 15 15 16 16 17 18 17 16 16 15 15 15 15 15 15 15 15 15 15 15 15 15 15 14 15 15
16 16 15 15 15 15 15 15 15 15 15 15 15 15 15 15 15 15 15 15 15 16 17 17 16 16 15 15 15 15 15 15 15 15 15 15 15 15 15 15 15 15 15
16 16 15 15 15 15 15 15 15 15 15 15 15 15 15 15 15 15 15 15 15 15 15 16 16 15 15 15 15 15 15 15 15 15 15 15 15 15 15 15 15 15 15
16 16 16 16 16 15 15 15 15 15 15 15 15 15 14 14 15 15 14 14 15 15 15 15 15 15 14 14 15 15 15 15 15 15 15 15 15 15 15 15 15 15 15
16 16 16 16 16 15 15 15 15 15 15 15 15 15 14 14 14 14 14 14 14 14 14 14 14 15 14 14 14 14 14 14 15 15 15 15 15 15 15 15 15 15 15
16 16 15 15 15 15 15 15 15 15 15 15 15 15 14 14 14 14 14 14 14 14 14 14 14 14 14 14 14 14 14 14 14 14 14 14 14 15 15 15 15 15 15
16 16 15 15 15 15 15 15 15 15 15 15 15 14 14 14 14 14 13 13 13 13 13 14 14 14 14 14 14 14 14 14 14 14 14 14 14 14 14 14 14 14 14
16 15 15 15 15 15 15 15 15 14 14 14 14 14 14 13 13 13 13 13 13 13 13 13 13 13 13 13 13 13 13 13 13 13 13 13 14 14 14 13 14 14 14
15 15 15 15 15 15 15 15 15 14 14 13 13 13 13 13 13 12 12 12 12 12 12 12 12 12 12 12 12 12 11 11 12 12 12 12 13 13 13 13 13 13 13
15 15 14 14 14 14 14 14 14 13 13 13 12 12 12 12 12 12 11 11 11 11 11 11 11 11 11 11 11 11 11 11 11 11 11 11 12 12 12 13 12 12 12
14 14 13 13 13 13 13 13 13 12 12 12 11 11 11 11 11 11 11 10 10 10 10 10 10 10 11 10 10 10 10 10 10 11 11 11 11 11 11 12 12 12 11
13 13 13 12 12 12 12 12 12 11 11 11 10 10 10 10 10 10 10 9 9 9 9 9 9 9 9 9 9 9 9 9 9 10 11 10 10 10 10 11 11 11 11
Wind_Speed
5 5 3 3 3 3 4 3 3 3 3 3 3 3 3 3 2 3 7 9 8 8 8 9 9 9 9 9 9 10 9 9 8 8 8 9 9 8 8 7 7 7 6
4 4 4 4 3 3 2 3 3 3 2 2 2 3 3 4 4 3 5 8 9 8 8 9 9 9 9 9 10 10 10 10 10 10 9 9 9 9 9 8 8 7 7
5 4 4 4 3 3 4 3 3 3 3 3 3 3 3 3 4 3 3 4 8 10 9 9 8 9 9 9 10 10 11 11 11 11 11 10 10 10 9 9 9 9 8
5 5 4 4 4 4 4 3 3 3 3 3 3 2 2 3 3 4 4 4 4 6 10 10 8 9 9 9 9 10 10 11 12 12 12 12 12 12 11 11 11 11 10
6 5 3 3 5 4 4 4 3 3 3 3 3 3 2 2 2 3 3 4 4 4 5 10 10 10 10 9 10 10 11 12 13 13 13 13 13 13 13 13 12 12 12
6 5 4 4 5 4 4 3 3 2 2 3 3 3 2 2 2 2 3 4 4 5 5 5 8 10 11 10 10 10 11 12 13 14 14 14 15 15 15 15 14 14 14
6 5 4 5 5 4 4 5 4 5 4 4 4 4 4 3 2 2 2 2 3 3 4 4 5 5 9 12 11 10 10 11 12 13 14 15 15 16 16 16 16 16 16
7 7 5 5 5 4 5 5 4 4 4 4 3 3 4 5 4 3 3 3 2 3 3 4 4 4 5 7 9 10 10 10 10 11 12 14 15 16 17 17 18 18 18
7 5 6 5 5 6 5 5 5 5 4 4 3 3 3 1 3 5 3 3 3 2 3 3 4 4 4 4 6 9 8 8 8 9 10 11 13 14 15 16 16 17 18
7 7 6 5 5 4 4 5 5 4 5 5 4 2 3 4 3 2 5 5 4 3 3 3 3 4 4 4 3 3 5 5 6 7 8 8 10 12 13 14 15 15 17
7 7 6 5 5 4 4 3 4 4 5 5 4 4 3 3 5 4 2 3 4 4 4 4 3 3 4 4 4 5 6 4 4 4 5 5 7 8 10 11 12 13 15
7 7 7 5 5 4 4 4 4 5 3 3 3 4 4 4 4 4 4 4 4 3 3 4 4 4 5 5 4 7 6 5 5 4 5 5 5 6 8 8 10 11 12
7 8 7 6 5 4 5 4 4 4 4 4 4 4 4 4 4 4 5 5 4 3 3 5 5 5 5 5 5 7 7 8 7 7 7 7 7 7 8 8 8 9 10
7 8 7 7 6 6 5 5 5 5 4 4 5 4 4 4 4 5 5 5 5 5 5 5 4 5 6 6 4 7 8 11 11 10 10 10 10 11 11 11 11 11 10
7 8 8 7 7 6 6 5 4 5 5 5 5 6 6 4 4 5 5 5 6 6 5 4 5 5 6 6 5 8 9 10 12 13 13 14 14 14 14 14 14 14 14
7 8 7 7 7 7 7 7 6 6 6 5 4 4 5 6 5 5 5 5 6 7 7 4 4 4 4 6 7 8 10 9 14 16 16 17 17 17 17 17 17 17 17
8 8 7 7 7 7 7 7 7 6 7 7 7 7 7 6 6 6 6 6 6 7 8 7 6 5 6 8 7 9 11 12 13 19 19 19 19 19 20 20 20 20 20
8 8 7 7 7 7 7 7 8 8 8 8 8 8 8 7 8 8 7 8 7 7 8 10 8 7 8 9 9 9 11 12 13 14 19 19 20 21 21 22 22 22 22
7 7 7 7 7 7 7 7 8 8 8 8 8 9 9 9 9 8 8 9 8 8 8 9 10 8 8 8 8 10 12 10 13 14 16 21 22 23 23 23 23 23 24
7 6 6 6 6 6 6 7 7 8 8 8 8 8 8 8 9 9 9 9 9 9 9 10 10 9 9 9 8 9 10 9 10 11 12 13 16 21 24 25 25 25 25
6 5 5 4 4 4 4 5 5 6 6 6 6 6 6 4 3 5 7 7 8 8 9 9 10 9 9 8 8 8 10 10 10 10 11 11 11 13 15 21 26 26 26
5 4 4 3 2 1 4 4 3 4 3 3 3 3 3 2 3 3 5 6 6 8 9 9 9 10 10 9 8 9 10 11 11 8 8 11 11 12 12 16 15 18 22
5 4 3 3 3 5 7 4 2 1 1 1 1 2 1 3 3 3 3 5 5 4 5 7 10 9 8 7 8 10 10 12 12 11 11 14 13 14 14 17 15 15 18
5 5 4 4 5 7 8 6 3 1 2 3 3 2 2 3 5 5 5 4 4 3 3 5 6 8 8 8 8 10 11 13 14 13 12 14 14 14 14 15 14 16 20
7 7 7 8 8 9 10 8 5 3 3 4 4 4 3 3 7 8 5 5 5 5 4 4 7 9 11 11 10 9 11 12 14 13 11 12 13 14 14 14 16 18 21
9 9 9 9 9 9 11 11 8 3 4 3 3 3 6 5 6 7 6 6 7 7 8 8 8 10 11 11 11 10 11 12 13 13 10 9 12 12 14 13 12 12 14
Wind_Direction
174 161 159 167 180 160 170 177 165 148 166 171 178 165 168 157 166 157 139 160 180 187 185 185 190 193 192 191 190 189 186 186 184 182 180 180 178 178 177 176 175 173 173
174 176 174 180 182 183 158 172 160 163 162 135 157 151 171 162 156 176 155 160 175 187 191 193 196 201 204 204 202 202 200 196 193 193 193 192 191 190 190 188 187 187 188
176 185 181 187 180 167 163 182 163 168 170 158 148 157 166 165 152 171 175 176 172 179 189 194 199 204 208 212 210 208 207 206 202 201 203 203 202 202 202 201 198 199 199
181 194 191 182 173 185 182 170 189 177 161 167 155 167 156 157 163 179 188 192 192 185 182 188 199 204 207 212 214 212 211 212 211 210 210 210 211 212 212 211 210 209 208
183 197 189 162 187 187 186 192 168 194 170 172 166 167 165 155 174 179 186 198 197 211 191 175 194 205 208 214 219 219 218 220 220 218 219 218 217 218 219 219 218 216 216
180 190 178 178 200 186 184 180 159 183 181 193 188 151 169 152 177 161 202 187 195 209 208 194 196 197 203 212 219 222 223 225 225 225 225 224 224 224 223 223 223 222 222
175 196 189 177 209 195 191 186 188 179 189 184 190 178 170 174 169 184 200 206 186 203 198 199 219 204 192 199 209 219 225 227 226 227 228 226 225 226 227 227 227 228 229
182 190 194 192 194 182 186 188 200 203 183 197 225 204 190 178 187 182 186 191 192 195 194 194 195 202 230 200 189 208 223 227 226 227 229 229 231 231 231 232 232 232 234
185 187 188 200 189 200 181 192 197 209 202 195 237 263 254 208 167 167 185 192 205 219 218 193 202 193 211 212 192 191 208 219 223 226 229 232 234 233 233 233 233 234 237
185 181 185 188 194 196 172 199 197 212 220 211 197 249 314 348 291 180 182 182 194 225 235 234 209 187 203 208 167 146 181 210 223 230 235 236 235 235 237 239 239 240 240
182 180 183 184 189 196 185 194 184 224 223 235 220 212 222 236 265 282 242 192 198 207 210 228 236 217 207 216 204 166 167 193 210 220 222 228 234 238 242 245 247 247 244
180 181 185 185 192 190 182 191 196 202 230 245 255 243 243 250 250 257 262 248 236 207 207 237 240 230 222 220 204 139 173 197 207 211 218 228 237 244 247 251 253 253 252
179 178 183 184 187 184 187 188 195 206 205 209 232 243 253 266 277 274 275 274 270 242 215 232 227 230 232 228 200 169 201 211 218 222 227 233 240 244 246 250 255 256 257
180 171 182 187 189 191 194 194 206 203 206 218 229 244 249 246 253 259 269 278 267 252 226 230 224 224 234 235 195 198 219 209 222 228 233 237 243 247 249 250 253 254 255
178 175 185 189 192 198 204 208 216 215 211 224 223 217 237 237 241 251 257 265 274 275 258 210 226 205 221 234 200 235 241 210 220 232 237 241 245 248 249 250 252 253 254
180 179 189 194 198 202 205 215 217 212 218 223 236 241 242 244 239 243 248 251 260 272 278 266 233 231 235 256 209 236 248 220 228 234 238 242 245 248 249 250 252 253 254
185 190 196 202 207 209 209 212 225 216 221 223 224 226 231 249 249 246 243 246 249 255 263 269 257 240 239 262 254 250 251 247 243 224 229 238 243 247 249 250 251 252 253
195 198 201 207 213 214 214 218 225 224 225 229 230 232 235 231 234 250 252 251 251 254 260 269 270 258 239 245 252 256 258 254 258 230 219 233 242 247 249 250 251 251 252
199 204 205 211 217 220 222 227 232 234 234 236 237 237 239 239 239 242 244 251 251 247 248 262 266 267 262 253 252 253 256 257 264 255 225 230 238 245 249 250 251 251 251
198 206 211 217 221 224 230 234 236 239 241 242 242 243 243 242 242 247 248 250 257 261 255 257 264 265 260 256 254 262 264 251 255 267 266 255 241 237 243 246 248 249 249
194 196 203 212 223 232 244 247 246 246 248 249 247 247 249 255 284 272 269 266 261 258 261 260 263 267 267 268 265 271 275 279 271 268 270 266 257 251 245 240 240 243 244
184 180 186 185 195 256 50 37 300 273 266 260 263 266 258 254 264 255 276 285 288 274 273 275 274 277 283 286 289 284 285 282 280 279 280 277 276 273 269 265 251 233 234
147 142 141 131 107 61 55 64 48 337 355 351 344 330 327 20 14 322 272 244 258 263 279 282 284 290 295 300 301 291 287 285 284 289 290 280 277 275 273 269 253 237 236
124 120 114 106 90 62 50 50 44 86 63 53 46 41 33 24 15 350 320 306 298 295 284 274 283 287 293 302 292 284 284 281 275 268 264 270 275 276 279 278 266 241 239
106 99 91 87 83 64 45 36 13 82 75 64 52 47 36 33 22 351 323 311 304 296 264 256 274 276 281 278 275 280 278 276 278 279 273 272 278 280 280 279 274 252 238
104 98 89 81 77 68 51 38 8 47 58 47 51 61 62 33 15 353 328 315 307 311 313 301 280 268 266 262 242 250 271 277 280 283 283 281 282 286 284 278 277 280 267
Height
1564 1565 1566 1567 1569 1570 1571 1571 1573 1573 1574 1575 1577 1577 1578 1579 1581 1582 1581 1582 1582 1584 1584 1585 1586 1587 1589 1589 1591 1591 1592 1593 1594 1595 1595 1596 1597 1598 1598 1599 1599 1600 1600
1563 1564 1565 1566 1568 1569 1571 1571 1572 1573 1574 1575 1576 1577 1578 1579 1580 1581 1582 1582 1582 1583 1584 1585 1586 1587 1588 1589 1590 1591 1592 1593 1593 1594 1595 1596 1597 1597 1598 1599 1599 1600 1600
1562 1563 1565 1566 1567 1568 1569 1570 1571 1573 1574 1575 1576 1577 1578 1578 1579 1580 1581 1582 1582 1582 1583 1584 1585 1586 1587 1588 1589 1590 1591 1592 1593 1593 1594 1595 1596 1597 1597 1598 1599 1599 1600
1560 1562 1564 1566 1566 1568 1569 1570 1571 1573 1574 1575 1576 1577 1577 1577 1578 1579 1580 1581 1582 1583 1582 1583 1584 1584 1585 1586 1587 1589 1589 1590 1591 1592 1593 1594 1595 1596 1597 1597 1598 1598 1599
1560 1561 1563 1564 1565 1567 1568 1570 1571 1572 1573 1574 1575 1576 1577 1578 1578 1579 1579 1580 1581 1581 1582 1581 1582 1583 1584 1584 1585 1587 1588 1588 1590 1591 1592 1593 1594 1594 1595 1596 1596 1597 1598
1559 1561 1562 1563 1565 1567 1567 1569 1570 1571 1572 1574 1575 1576 1576 1577 1578 1578 1579 1579 1580 1580 1581 1581 1581 1581 1582 1583 1583 1584 1585 1586 1587 1588 1589 1590 1591 1592 1593 1594 1595 1595 1596
1558 1559 1562 1562 1564 1565 1566 1568 1569 1570 1572 1573 1575 1575 1576 1576 1577 1577 1578 1578 1579 1579 1580 1580 1580 1581 1581 1581 1582 1582 1583 1584 1585 1586 1587 1588 1589 1590 1591 1591 1592 1593 1594
1557 1559 1560 1562 1563 1564 1565 1567 1568 1570 1571 1572 1574 1575 1575 1577 1576 1577 1577 1577 1578 1579 1579 1579 1579 1579 1580 1580 1580 1580 1581 1582 1582 1583 1584 1585 1586 1586 1587 1588 1589 1590 1591
1556 1557 1559 1561 1562 1563 1565 1565 1567 1569 1571 1572 1573 1574 1574 1574 1575 1576 1576 1576 1577 1578 1578 1578 1578 1578 1578 1579 1579 1579 1579 1579 1580 1581 1581 1582 1582 1583 1584 1585 1586 1587 1587
1554 1556 1558 1559 1560 1563 1563 1565 1566 1568 1569 1571 1572 1572 1573 1573 1574 1574 1575 1575 1576 1576 1577 1577 1578 1577 1577 1577 1577 1577 1577 1577 1578 1578 1578 1579 1579 1580 1581 1581 1582 1583 1583
1553 1555 1557 1558 1559 1561 1562 1563 1564 1566 1568 1570 1571 1572 1573 1573 1574 1574 1574 1575 1575 1575 1576 1576 1576 1576 1576 1576 1576 1575 1575 1575 1576 1576 1576 1576 1577 1577 1578 1578 1578 1579 1579
1552 1554 1555 1557 1558 1560 1561 1562 1563 1565 1566 1568 1569 1571 1572 1573 1573 1573 1573 1573 1574 1574 1574 1574 1575 1575 1575 1575 1575 1574 1574 1573 1574 1574 1574 1574 1574 1574 1574 1575 1575 1575 1575
1551 1552 1555 1556 1558 1559 1560 1561 1562 1564 1565 1566 1567 1569 1570 1571 1571 1572 1572 1572 1572 1572 1572 1572 1572 1573 1573 1573 1573 1571 1571 1571 1571 1571 1571 1571 1571 1571 1571 1571 1571 1571 1571
1551 1552 1553 1555 1557 1558 1559 1560 1562 1563 1563 1564 1565 1566 1567 1568 1569 1570 1571 1571 1570 1570 1570 1570 1570 1570 1570 1571 1570 1569 1569 1569 1569 1569 1569 1568 1568 1568 1568 1568 1568 1567 1567
1549 1550 1552 1554 1556 1557 1558 1559 1561 1561 1562 1563 1564 1564 1565 1566 1566 1567 1568 1568 1569 1568 1567 1567 1568 1567 1567 1567 1567 1567 1567 1566 1566 1566 1565 1565 1565 1564 1564 1564 1564 1563 1563
1547 1550 1551 1553 1554 1556 1556 1557 1559 1559 1560 1560 1561 1562 1562 1564 1564 1564 1565 1565 1565 1566 1566 1565 1565 1566 1564 1565 1564 1563 1563 1562 1562 1562 1561 1561 1561 1560 1560 1559 1559 1559 1558
1546 1548 1550 1551 1553 1554 1555 1556 1557 1557 1558 1558 1559 1559 1559 1560 1561 1562 1562 1562 1562 1563 1562 1562 1563 1562 1560 1560 1560 1559 1559 1558 1558 1557 1556 1556 1556 1555 1555 1554 1554 1553 1553
1544 1546 1548 1550 1551 1552 1553 1553 1554 1555 1555 1556 1556 1556 1557 1557 1557 1558 1558 1558 1559 1558 1559 1558 1558 1558 1556 1555 1554 1554 1554 1554 1554 1553 1551 1551 1550 1550 1549 1549 1548 1548 1547
1541 1544 1545 1547 1548 1549 1550 1551 1552 1552 1552 1553 1553 1553 1553 1553 1553 1554 1554 1554 1555 1555 1554 1554 1553 1554 1553 1552 1551 1549 1549 1548 1548 1548 1546 1544 1543 1543 1543 1542 1541 1541 1541
1539 1541 1543 1544 1546 1546 1547 1548 1548 1548 1549 1549 1549 1549 1549 1549 1549 1550 1550 1549 1550 1550 1550 1549 1548 1548 1548 1547 1546 1545 1545 1544 1542 1542 1541 1539 1537 1536 1535 1534 1534 1533 1533
1537 1538 1540 1541 1542 1543 1544 1544 1545 1545 1545 1545 1545 1545 1545 1545 1544 1545 1545 1545 1545 1545 1545 1544 1543 1543 1543 1542 1541 1540 1539 1538 1536 1536 1535 1534 1532 1530 1529 1527 1526 1525 1525
1533 1535 1537 1538 1539 1540 1540 1540 1541 1541 1541 1541 1541 1540 1540 1540 1539 1539 1539 1539 1539 1539 1539 1538 1537 1537 1537 1536 1535 1534 1533 1531 1530 1530 1528 1527 1526 1524 1522 1521 1520 1518 1517
1530 1532 1533 1534 1535 1536 1536 1537 1537 1537 1537 1537 1536 1536 1536 1535 1535 1534 1534 1533 1533 1532 1532 1532 1531 1531 1530 1529 1528 1527 1526 1525 1522 1522 1521 1517 1517 1515 1514 1513 1511 1509 1508
1528 1529 1531 1532 1532 1532 1533 1533 1533 1533 1533 1533 1532 1532 1531 1531 1530 1530 1529 1528 1528 1527 1526 1526 1525 1524 1523 1522 1522 1520 1518 1516 1514 1513 1512 1509 1508 1507 1506 1504 1502 1500 1498
1526 1527 1529 1529 1530 1530 1530 1530 1530 1530 1530 1529 1529 1528 1527 1527 1526 1525 1525 1524 1523 1522 1521 1520 1518 1517 1516 1515 1514 1513 1511 1510 1507 1507 1506 1503 1500 1499 1497 1495 1494 1491 1489
1524 1526 1527 1528 1528 1529 1529 1529 1529 1529 1528 1528 1527 1526 1524 1523 1522 1521 1520 1519 1518 1517 1515 1514 1512 1511 1509 1508 1506 1505 1504 1503 1501 1499 1498 1497 1494 1492 1488 1487 1486 1484 1482